Regional Weather Roundup
Issued by NWS Albany, NY

Home | Current Version | Previous Version | Graphics & Text | Print | Product List | Glossary On
Versions: 1 2 3 4 5 6 7 8 9 10 11 12 13 14 15 16 17 18 19 20 21 22 23 24 25 26 27 28 29 30 31 32 33 34 35 36 37 38 39 40 41 42 43 44 45 46 47 48 49 50
000
ASUS41 KALY 260210
RWRALY

NEW YORK STATE HOURLY WEATHER ROUNDUP
NATIONAL WEATHER SERVICE ALBANY NY
900 PM EST TUE NOV 25 2014

NOTE: "FAIR" INDICATES FEW OR NO CLOUDS BELOW 12,000 FEET WITH NO
SIGNIFICANT WEATHER AND/OR NO OBSTRUCTIONS TO VISIBILITY.

NYZ032-033-038>043-046>054-057>066-NYZ062>081-260300-
EAST


CITY           SKY/WX    TMP DP  RH WIND       PRES   REMARKS
ALBANY         MOCLDY    43  27  53 NW14      30.09R
GLENS FALLS    CLEAR     35  26  69 VRB3      30.07R
POUGHKEEPSIE   MOCLDY    38  30  73 CALM      30.09R
NEWBURGH       CLEAR     43  28  56 CALM      30.10R
MONTGOMERY     PTCLDY    37  27  67 SW5       30.09R WCI  33
WHITE PLAINS   MOCLDY    47  28  47 CALM      30.09R
ISLIP          CLOUDY    47  34  60 SW6       30.11R
NEW YORK CITY  CLOUDY    52  28  39 W10       30.12R
CENTRAL PARK   MOCLDY    52  29  41 VRB5      30.14R
$$

NYZ005>009-017-018-044>046-055-056-260300-
CENTRAL


CITY           SKY/WX    TMP DP  RH WIND       PRES   REMARKS
FULTON         CLOUDY    37  30  75 W15G23    30.14R WCI  28
SYRACUSE       CLOUDY    40  32  73 W12       30.14R WCI  33
ROME           CLOUDY    39  32  76 W9G20     30.13R WCI  33
ELMIRA         CLEAR     40  26  57 SW8       30.11R WCI  34
BINGHAMTON     CLEAR     37  25  61 N5        30.08R WCI  33
MONTICELLO     MOCLDY    37  25  60 W3        30.09R
$$

NYZ026>034-041>043-260300-
NORTH


CITY           SKY/WX    TMP DP  RH WIND       PRES   REMARKS
WATERTOWN      CLOUDY    39  25  57 W18G26    30.11R WCI  30
FORT DRUM      NOT AVBL
MASSENA        CLOUDY    39  27  62 W16G25    30.04R WCI  30
SARANAC LAKE   LGT SNOW  33  29  85 W10G24    29.98R FOG     WCI  25
PLATTSBURGH    CLOUDY    42  30  62 SW8G18    30.02
$$

NYZ001>004-010>016-019>021-260300-
WEST


CITY           SKY/WX    TMP DP  RH WIND       PRES   REMARKS
NIAGARA FALLS  MOCLDY    34  20  56 W17       30.15R WCI  23
BUFFALO        CLOUDY    34  22  61 W13       30.16R WCI  25
DUNKIRK        CLOUDY    36  27  69 W9G20     30.17R WCI  29
JAMESTOWN      CLOUDY    32  25  74 W8        30.14R WCI  25
WELLSVILLE     CLOUDY    33  23  66 W8        30.12R WCI  26
ROCHESTER      CLOUDY    35  29  78 W9        30.16R WCI  28
PENN YAN       CLOUDY    40  26  57 W15G22    30.12R WCI  32
$$

             KEY
       WCI = WIND CHILL INDEX
       VSB = VISIBILITY
       HX  = HEAT INDEX
$$



USA.gov is the U.S. government's official web portal to all federal, state and local government web resources and services.